ProjectID,Date,Electric Generation,Electric Utility Import,Facility Electric Load
,YYYY-MM-DD,kW,kW,kW
30,2007-11-28,51.17820833333334,,51.17820833333334
30,2007-11-29,60.10091666666667,,60.10091666666667
30,2007-11-30,54.79991666666667,,54.79991666666667
30,2007-12-01,56.92870833333333,,56.92870833333333
30,2007-12-02,58.85191666666666,,58.85191666666666
30,2007-12-03,58.84437500000001,,58.84437500000001
30,2007-12-04,56.542,,56.542
30,2007-12-05,57.21366666666666,,57.21366666666666
30,2007-12-06,55.15470833333333,,55.15470833333333
30,2007-12-07,50.94495833333334,,50.94495833333334
30,2007-12-08,54.793625,,54.793625
30,2007-12-09,59.251,,59.251
30,2007-12-10,58.01991666666667,,58.01991666666667
30,2007-12-11,54.05704166666666,,54.05704166666666
30,2007-12-12,61.238,,61.238
30,2007-12-13,56.81158333333334,,56.81158333333334
30,2007-12-14,61.12433333333333,,61.12433333333333
30,2007-12-15,61.19141666666667,,61.19141666666667
30,2007-12-16,59.402458333333335,,59.402458333333335
30,2007-12-17,56.470375,,56.470375
30,2007-12-18,59.584,,59.584
30,2007-12-19,60.418375,,60.418375
30,2007-12-20,62.66220833333333,,62.66220833333333
30,2007-12-21,59.52679166666667,,59.52679166666667
30,2007-12-22,58.27704166666666,,58.27704166666666
30,2007-12-23,61.12929166666667,,61.12929166666667
30,2007-12-24,54.350833333333334,,54.350833333333334
30,2007-12-25,53.93654166666667,,53.93654166666667
30,2007-12-26,51.825583333333334,,51.825583333333334
30,2007-12-27,54.775083333333335,,54.775083333333335
30,2007-12-28,52.39329166666667,,52.39329166666667
30,2007-12-29,52.27891666666667,,52.27891666666667
30,2007-12-30,53.42575,,53.42575
30,2007-12-31,53.159875,,53.159875
30,2008-01-01,53.64366666666667,,53.64366666666667
30,2008-01-02,47.87433333333333,,47.87433333333333
30,2008-01-03,47.98441666666667,,47.98441666666667
30,2008-01-04,13.807958333333334,,13.807958333333334
30,2008-01-05,0.0,,0.0
30,2008-01-06,0.0,,0.0
30,2008-01-07,0.0,,0.0
30,2008-01-08,24.40725,,24.40725
30,2008-01-09,55.97108333333333,,55.97108333333333
30,2008-01-10,52.84979166666667,,52.84979166666667
30,2008-01-11,56.16891666666667,,56.16891666666667
30,2008-01-12,55.27191666666667,,55.27191666666667
30,2008-01-13,54.671875,,54.671875
30,2008-01-14,55.562625,,55.562625
30,2008-01-15,54.93291666666667,,54.93291666666667
30,2008-01-16,54.93175,,54.93175
30,2008-01-17,53.72275,,53.72275
30,2008-01-18,55.741625,,55.741625
30,2008-01-19,55.77220833333333,,55.77220833333333
30,2008-01-20,52.91404166666666,,52.91404166666666
30,2008-01-21,52.550125,,52.550125
30,2008-01-22,49.020833333333336,,49.020833333333336
30,2008-01-23,53.34641666666667,,53.34641666666667
30,2008-01-24,53.54233333333334,,53.54233333333334
30,2008-01-25,52.60033333333333,,52.60033333333333
30,2008-01-26,53.130875,,53.130875
30,2008-01-27,55.617250000000006,,55.617250000000006
30,2008-01-28,55.16283333333333,,55.16283333333333
30,2008-01-29,55.166041666666665,,55.166041666666665
30,2008-01-30,54.794999999999995,,54.794999999999995
30,2008-01-31,53.96808333333333,,53.96808333333333
30,2008-02-01,54.58733333333333,,54.58733333333333
30,2008-02-02,56.2755,,56.2755
30,2008-02-03,58.284625,,58.284625
30,2008-02-04,49.57170833333333,,49.57170833333333
30,2008-02-05,57.914125000000006,,57.914125000000006
30,2008-02-06,57.539125000000006,,57.539125000000006
30,2008-02-07,52.39266666666666,,52.39266666666666
30,2008-02-08,52.029374999999995,,52.029374999999995
30,2008-02-09,52.76770833333333,,52.76770833333333
30,2008-02-10,50.77283333333333,,50.77283333333333
30,2008-02-11,46.69412500000001,,46.69412500000001
30,2008-02-12,42.58391666666667,,42.58391666666667
30,2008-02-13,50.44079166666666,,50.44079166666666
30,2008-02-14,49.211666666666666,,49.211666666666666
30,2008-02-15,51.287791666666664,,51.287791666666664
30,2008-02-16,50.270250000000004,,50.270250000000004
30,2008-02-17,51.70183333333333,,51.70183333333333
30,2008-02-18,54.00783333333334,,54.00783333333334
30,2008-02-19,47.98379166666667,,47.98379166666667
30,2008-02-20,48.63616666666667,,48.63616666666667
30,2008-02-21,49.59383333333333,,49.59383333333333
30,2008-02-22,50.20054166666667,,50.20054166666667
30,2008-02-23,51.50841666666667,,51.50841666666667
30,2008-02-24,50.77675,,50.77675
30,2008-02-25,49.498250000000006,,49.498250000000006
30,2008-02-26,51.00204166666666,,51.00204166666666
30,2008-02-27,51.04425,,51.04425
30,2008-02-28,47.58795833333334,,47.58795833333334
30,2008-02-29,0.0,,0.0
30,2008-03-01,48.858916666666666,,48.858916666666666
30,2008-03-02,51.054,,51.054
30,2008-03-03,50.09516666666667,,50.09516666666667
30,2008-03-04,51.481208333333335,,51.481208333333335
30,2008-03-05,51.97595833333333,,51.97595833333333
30,2008-03-06,50.75,,50.75
30,2008-03-07,51.21879166666667,,51.21879166666667
30,2008-03-08,53.44858333333334,,53.44858333333334
30,2008-03-09,52.93295833333334,,52.93295833333334
30,2008-03-10,55.7475,,55.7475
30,2008-03-11,59.625708333333336,,59.625708333333336
30,2008-03-12,60.03516666666667,,60.03516666666667
30,2008-03-13,59.50666666666667,,59.50666666666667
30,2008-03-14,60.58204166666667,,60.58204166666667
30,2008-03-15,61.61658333333333,,61.61658333333333
30,2008-03-16,60.84970833333333,,60.84970833333333
30,2008-03-17,60.57691666666667,,60.57691666666667
30,2008-03-18,62.331375,,62.331375
30,2008-03-19,61.000708333333336,,61.000708333333336
30,2008-03-20,59.40304166666667,,59.40304166666667
30,2008-03-21,61.039125000000006,,61.039125000000006
30,2008-03-22,64.73833333333333,,64.73833333333333
30,2008-03-23,64.89658333333334,,64.89658333333334
30,2008-03-24,52.597125,,52.597125
30,2008-03-25,63.68620833333333,,63.68620833333333
30,2008-03-26,66.53783333333332,,66.53783333333332
30,2008-03-27,65.356875,,65.356875
30,2008-03-28,66.41745833333333,,66.41745833333333
30,2008-03-29,65.63354166666666,,65.63354166666666
30,2008-03-30,64.54950000000001,,64.54950000000001
30,2008-03-31,65.66404166666666,,65.66404166666666
30,2008-04-01,69.58995833333334,,69.58995833333334
30,2008-04-02,66.24483333333333,,66.24483333333333
30,2008-04-03,60.283875,,60.283875
30,2008-04-04,53.03266666666667,,53.03266666666667
30,2008-04-05,9.094416666666666,,9.094416666666666
30,2008-04-06,0.0,,0.0
30,2008-04-07,7.808625,,7.808625
30,2008-04-08,26.865875,,26.865875
30,2008-04-09,49.2365,,49.2365
30,2008-04-10,31.706374999999998,,31.706374999999998
30,2008-04-11,8.558041666666666,,8.558041666666666
30,2008-04-12,0.0,,0.0
30,2008-04-13,0.0,,0.0
30,2008-04-14,32.700583333333334,,32.700583333333334
30,2008-04-15,49.696666666666665,,49.696666666666665
30,2008-04-16,32.705083333333334,,32.705083333333334
30,2008-04-17,39.016375000000004,,39.016375000000004
30,2008-04-18,53.88879166666666,,53.88879166666666
30,2008-04-19,54.93875,,54.93875
30,2008-04-20,53.602291666666666,,53.602291666666666
30,2008-04-21,47.92720833333333,,47.92720833333333
30,2008-04-22,54.23316666666667,,54.23316666666667
30,2008-04-23,55.09970833333333,,55.09970833333333
30,2008-04-24,25.125666666666664,,25.125666666666664
30,2008-04-25,0.0,,0.0
30,2008-04-26,0.0,,0.0
30,2008-04-27,0.0,,0.0
30,2008-04-28,39.703875000000004,,39.703875000000004
30,2008-04-29,55.44412500000001,,55.44412500000001
30,2008-04-30,55.05083333333334,,55.05083333333334
30,2008-05-01,52.801500000000004,,52.801500000000004
30,2008-05-02,56.30416666666667,,56.30416666666667
30,2008-05-03,56.593875,,56.593875
30,2008-05-04,60.45195833333333,,60.45195833333333
30,2008-05-05,58.7605,,58.7605
30,2008-05-06,60.742250000000006,,60.742250000000006
30,2008-05-07,60.69679166666666,,60.69679166666666
30,2008-05-08,62.002625,,62.002625
30,2008-05-09,59.698,,59.698
30,2008-05-10,59.39208333333334,,59.39208333333334
30,2008-05-11,56.69541666666667,,56.69541666666667
30,2008-05-12,47.152458333333335,,47.152458333333335
30,2008-05-13,57.25141666666667,,57.25141666666667
30,2008-05-14,58.25,,58.25
30,2008-05-15,62.05354166666667,,62.05354166666667
30,2008-05-16,59.52616666666666,,59.52616666666666
30,2008-05-17,59.03908333333334,,59.03908333333334
30,2008-05-18,35.737249999999996,,35.737249999999996
30,2008-05-19,22.020916666666665,,22.020916666666665
30,2008-05-20,54.671875,,54.671875
30,2008-05-21,48.52883333333333,,48.52883333333333
30,2008-05-22,51.35037500000001,,51.35037500000001
30,2008-05-23,55.77491666666666,,55.77491666666666
30,2008-05-24,56.73979166666667,,56.73979166666667
30,2008-05-25,59.438874999999996,,59.438874999999996
30,2008-05-26,58.93245833333333,,58.93245833333333
30,2008-05-27,61.691624999999995,,61.691624999999995
30,2008-05-28,60.38033333333333,,60.38033333333333
30,2008-05-29,58.787958333333336,,58.787958333333336
30,2008-05-30,61.27491666666666,,61.27491666666666
30,2008-05-31,64.81133333333334,,64.81133333333334
30,2008-06-01,66.51325,,66.51325
30,2008-06-02,53.74100000000001,,53.74100000000001
30,2008-06-03,64.701875,,64.701875
30,2008-06-04,63.87375,,63.87375
30,2008-06-05,61.336083333333335,,61.336083333333335
30,2008-06-06,62.599041666666665,,62.599041666666665
30,2008-06-07,67.63029166666666,,67.63029166666666
30,2008-06-08,55.27483333333333,,55.27483333333333
30,2008-06-09,67.73183333333334,,67.73183333333334
30,2008-06-10,63.05741666666666,,63.05741666666666
30,2008-06-11,59.766999999999996,,59.766999999999996
30,2008-06-12,59.489583333333336,,59.489583333333336
30,2008-06-13,59.95316666666667,,59.95316666666667
30,2008-06-14,66.18383333333334,,66.18383333333334
30,2008-06-15,65.09908333333333,,65.09908333333333
30,2008-06-16,64.949375,,64.949375
30,2008-06-17,64.88679166666667,,64.88679166666667
30,2008-06-18,62.94283333333333,,62.94283333333333
30,2008-06-19,63.76575,,63.76575
30,2008-06-20,65.629125,,65.629125
30,2008-06-21,65.99491666666667,,65.99491666666667
30,2008-06-22,67.08879166666667,,67.08879166666667
30,2008-06-23,66.56654166666667,,66.56654166666667
30,2008-06-24,47.76833333333334,,47.76833333333334
30,2008-06-25,0.003916666666666666,,0.003916666666666666
30,2008-06-26,43.74870833333333,,43.74870833333333
30,2008-06-27,49.10808333333333,,49.10808333333333
30,2008-06-28,0.0012916666666666667,,0.0012916666666666667
30,2008-06-29,0.0,,0.0
30,2008-06-30,33.36858333333333,,33.36858333333333
30,2008-07-01,57.99358333333333,,57.99358333333333
30,2008-07-02,58.58866666666666,,58.58866666666666
30,2008-07-03,58.47541666666667,,58.47541666666667
30,2008-07-04,57.763125,,57.763125
30,2008-07-05,57.140791666666665,,57.140791666666665
30,2008-07-06,56.16425,,56.16425
30,2008-07-07,44.92720833333333,,44.92720833333333
30,2008-07-08,59.242333333333335,,59.242333333333335
30,2008-07-09,60.161541666666665,,60.161541666666665
30,2008-07-10,66.65375,,66.65375
30,2008-07-11,65.54441666666666,,65.54441666666666
30,2008-07-12,64.96629166666666,,64.96629166666666
30,2008-07-13,66.455875,,66.455875
30,2008-07-14,57.929875,,57.929875
30,2008-07-15,66.35829166666666,,66.35829166666666
30,2008-07-16,65.67720833333333,,65.67720833333333
30,2008-07-17,67.126375,,67.126375
30,2008-07-18,69.50658333333332,,69.50658333333332
30,2008-07-19,53.34645833333334,,53.34645833333334
30,2008-07-20,0.0,,0.0
30,2008-07-21,50.15375,,50.15375
30,2008-07-22,67.98570833333333,,67.98570833333333
30,2008-07-23,46.7645,,46.7645
30,2008-07-24,65.33870833333333,,65.33870833333333
30,2008-07-25,65.39466666666667,,65.39466666666667
30,2008-07-26,65.5275,,65.5275
30,2008-07-27,64.04575,,64.04575
30,2008-07-28,65.15370833333334,,65.15370833333334
30,2008-07-29,66.629,,66.629
30,2008-07-30,67.50008333333334,,67.50008333333334
30,2008-07-31,48.726791666666664,,48.726791666666664
30,2008-08-01,6.309916666666666,,6.309916666666666
30,2008-08-02,0.0,,0.0
30,2008-08-03,0.0,,0.0
30,2008-08-04,17.738416666666666,,17.738416666666666
30,2008-08-05,40.724041666666665,,40.724041666666665
30,2008-08-06,65.3165,,65.3165
30,2008-08-07,63.821625000000004,,63.821625000000004
30,2008-08-08,63.129,,63.129
30,2008-08-09,62.980625,,62.980625
30,2008-08-10,62.26054166666666,,62.26054166666666
30,2008-08-11,61.4845,,61.4845
30,2008-08-12,62.269625,,62.269625
30,2008-08-13,57.02354166666667,,57.02354166666667
30,2008-08-14,62.33991666666666,,62.33991666666666
30,2008-08-15,60.345124999999996,,60.345124999999996
30,2008-08-16,62.793083333333335,,62.793083333333335
30,2008-08-17,63.46883333333333,,63.46883333333333
30,2008-08-18,63.455875,,63.455875
30,2008-08-19,64.04954166666667,,64.04954166666667
30,2008-08-20,61.880291666666665,,61.880291666666665
30,2008-08-21,32.884375,,32.884375
30,2008-08-22,35.94929166666667,,35.94929166666667
30,2008-08-23,63.12641666666667,,63.12641666666667
30,2008-08-24,64.11333333333333,,64.11333333333333
30,2008-08-25,65.08083333333333,,65.08083333333333
30,2008-08-26,63.97929166666666,,63.97929166666666
30,2008-08-27,63.64729166666667,,63.64729166666667
30,2008-08-28,64.75670833333334,,64.75670833333334
30,2008-08-29,64.412875,,64.412875
30,2008-08-30,66.67066666666666,,66.67066666666666
30,2008-08-31,66.79820833333333,,66.79820833333333
30,2008-09-01,64.52875,,64.52875
30,2008-09-02,66.168125,,66.168125
30,2008-09-03,64.52479166666667,,64.52479166666667
30,2008-09-04,65.425875,,65.425875
30,2008-09-05,68.07041666666667,,68.07041666666667
30,2008-09-06,66.92591666666667,,66.92591666666667
30,2008-09-07,64.66025,,64.66025
30,2008-09-08,60.97658333333334,,60.97658333333334
30,2008-09-09,65.32575,,65.32575
30,2008-09-10,62.85808333333333,,62.85808333333333
30,2008-09-11,63.72925,,63.72925
30,2008-09-12,63.418,,63.418
30,2008-09-13,64.22020833333333,,64.22020833333333
30,2008-09-14,67.099125,,67.099125
30,2008-09-15,67.32558333333334,,67.32558333333334
30,2008-09-16,63.70845833333333,,63.70845833333333
30,2008-09-17,62.839958333333335,,62.839958333333335
30,2008-09-18,63.90120833333333,,63.90120833333333
30,2008-09-19,61.74366666666666,,61.74366666666666
30,2008-09-20,62.43241666666666,,62.43241666666666
30,2008-09-21,63.96875,,63.96875
30,2008-09-22,63.75395833333334,,63.75395833333334
30,2008-09-23,53.12133333333333,,53.12133333333333
30,2008-09-24,63.632958333333335,,63.632958333333335
30,2008-09-25,62.4455,,62.4455
30,2008-09-26,63.89329166666667,,63.89329166666667
30,2008-09-27,63.44920833333333,,63.44920833333333
30,2008-09-28,64.27616666666667,,64.27616666666667
30,2008-09-29,20.269666666666666,,20.269666666666666
30,2008-09-30,0.0,,0.0
30,2008-10-01,39.306041666666665,,39.306041666666665
30,2008-10-02,60.72016666666667,,60.72016666666667
30,2008-10-03,61.45454166666667,,61.45454166666667
30,2008-10-04,60.519666666666666,,60.519666666666666
30,2008-10-05,61.573125000000005,,61.573125000000005
30,2008-10-06,61.367250000000006,,61.367250000000006
30,2008-10-07,60.694041666666664,,60.694041666666664
30,2008-10-08,68.162875,,68.162875
30,2008-10-09,35.793083333333335,,35.793083333333335
30,2008-10-10,61.27225000000001,,61.27225000000001
30,2008-10-11,59.97925,,59.97925
30,2008-10-12,59.37520833333334,,59.37520833333334
30,2008-10-13,49.43108333333333,,49.43108333333333
30,2008-10-14,60.0705,,60.0705
30,2008-10-15,61.523500000000006,,61.523500000000006
30,2008-10-16,61.70970833333333,,61.70970833333333
30,2008-10-17,58.71625,,58.71625
30,2008-10-18,59.615916666666664,,59.615916666666664
30,2008-10-19,58.91683333333333,,58.91683333333333
30,2008-10-20,60.79045833333333,,60.79045833333333
30,2008-10-21,57.315333333333335,,57.315333333333335
30,2008-10-22,58.71508333333333,,58.71508333333333
30,2008-10-23,58.661541666666665,,58.661541666666665
30,2008-10-24,57.18891666666667,,57.18891666666667
30,2008-10-25,58.71233333333333,,58.71233333333333
30,2008-10-26,60.989625,,60.989625
30,2008-10-27,59.618625,,59.618625
30,2008-10-28,54.61079166666667,,54.61079166666667
30,2008-10-29,55.48195833333333,,55.48195833333333
30,2008-10-30,56.07816666666667,,56.07816666666667
30,2008-10-31,56.38041666666667,,56.38041666666667
30,2008-11-01,57.85945833333333,,57.85945833333333
30,2008-11-02,57.647375000000004,,57.647375000000004
30,2008-11-03,45.817791666666665,,45.817791666666665
30,2008-11-04,60.441624999999995,,60.441624999999995
30,2008-11-05,58.839958333333335,,58.839958333333335
30,2008-11-06,59.485749999999996,,59.485749999999996
30,2008-11-07,59.888083333333334,,59.888083333333334
30,2008-11-08,59.550958333333334,,59.550958333333334
30,2008-11-09,57.156416666666665,,57.156416666666665
30,2008-11-10,55.50295833333333,,55.50295833333333
30,2008-11-11,54.992416666666664,,54.992416666666664
30,2008-11-12,55.24504166666667,,55.24504166666667
30,2008-11-13,57.422041666666665,,57.422041666666665
30,2008-11-14,59.10445833333333,,59.10445833333333
30,2008-11-15,59.48466666666667,,59.48466666666667
30,2008-11-16,54.72416666666667,,54.72416666666667
30,2008-11-17,51.901250000000005,,51.901250000000005
30,2008-11-18,54.17995833333333,,54.17995833333333
30,2008-11-19,55.534124999999996,,55.534124999999996
30,2008-11-20,55.50020833333334,,55.50020833333334
30,2008-11-21,55.08358333333334,,55.08358333333334
30,2008-11-22,55.226791666666664,,55.226791666666664
30,2008-11-23,53.59133333333333,,53.59133333333333
30,2008-11-24,54.898625,,54.898625
30,2008-11-25,45.612249999999996,,45.612249999999996
30,2008-11-26,55.79966666666667,,55.79966666666667
30,2008-11-27,55.002833333333335,,55.002833333333335
30,2008-11-28,55.37520833333334,,55.37520833333334
30,2008-11-29,56.633,,56.633
30,2008-11-30,57.065416666666664,,57.065416666666664
30,2008-12-01,56.66691666666667,,56.66691666666667
30,2008-12-02,55.14608333333334,,55.14608333333334
30,2008-12-03,53.883,,53.883
30,2008-12-04,54.92466666666667,,54.92466666666667
30,2008-12-05,55.422125,,55.422125
30,2008-12-06,54.372625,,54.372625
30,2008-12-07,54.50029166666667,,54.50029166666667
30,2008-12-08,56.841499999999996,,56.841499999999996
30,2008-12-09,61.84404166666667,,61.84404166666667
30,2008-12-10,57.880374999999994,,57.880374999999994
30,2008-12-11,43.284124999999996,,43.284124999999996
30,2008-12-12,53.94295833333334,,53.94295833333334
30,2008-12-13,54.1695,,54.1695
30,2008-12-14,56.099291666666666,,56.099291666666666
30,2008-12-15,58.307625,,58.307625
30,2008-12-16,58.02895833333333,,58.02895833333333
30,2008-12-17,58.760625000000005,,58.760625000000005
30,2008-12-18,57.00025,,57.00025
30,2008-12-19,55.245125,,55.245125
30,2008-12-20,52.955958333333335,,52.955958333333335
30,2008-12-21,54.43254166666667,,54.43254166666667
30,2008-12-22,50.00541666666667,,50.00541666666667
30,2008-12-23,51.929916666666664,,51.929916666666664
30,2008-12-24,55.911750000000005,,55.911750000000005
30,2008-12-25,51.90120833333333,,51.90120833333333
30,2008-12-26,51.732,,51.732
30,2008-12-27,56.98466666666667,,56.98466666666667
30,2008-12-28,59.10183333333333,,59.10183333333333
30,2008-12-29,48.35966666666667,,48.35966666666667
30,2008-12-30,56.91954166666667,,56.91954166666667
30,2008-12-31,54.85966666666667,,54.85966666666667
30,2009-01-01,47.39075,,47.39075
30,2009-01-02,50.94816666666667,,50.94816666666667
30,2009-01-03,52.32325,,52.32325
30,2009-01-04,54.77104166666667,,54.77104166666667
30,2009-01-05,58.84133333333333,,58.84133333333333
30,2009-01-06,52.002833333333335,,52.002833333333335
30,2009-01-07,56.0445,,56.0445
30,2009-01-08,52.786750000000005,,52.786750000000005
30,2009-01-09,52.153875,,52.153875
30,2009-01-10,55.44558333333333,,55.44558333333333
30,2009-01-11,54.58879166666667,,54.58879166666667
30,2009-01-12,50.208625000000005,,50.208625000000005
30,2009-01-13,52.979375000000005,,52.979375000000005
30,2009-01-14,50.742416666666664,,50.742416666666664
30,2009-01-15,49.12520833333334,,49.12520833333334
30,2009-01-16,48.023666666666664,,48.023666666666664
30,2009-01-17,48.20854166666667,,48.20854166666667
30,2009-01-18,49.349250000000005,,49.349250000000005
30,2009-01-19,50.10175,,50.10175
30,2009-01-20,48.8205,,48.8205
30,2009-01-21,40.72166666666667,,40.72166666666667
30,2009-01-22,45.60445833333333,,45.60445833333333
30,2009-01-23,48.68508333333333,,48.68508333333333
30,2009-01-24,48.63829166666667,,48.63829166666667
30,2009-01-25,46.46379166666667,,46.46379166666667
30,2009-01-26,47.784124999999996,,47.784124999999996
30,2009-01-27,47.52891666666667,,47.52891666666667
30,2009-01-28,47.69295833333334,,47.69295833333334
30,2009-01-29,45.99770833333333,,45.99770833333333
30,2009-01-30,44.940374999999996,,44.940374999999996
30,2009-01-31,44.70858333333334,,44.70858333333334
30,2009-02-01,48.982,,48.982
30,2009-02-02,49.81279166666667,,49.81279166666667
30,2009-02-03,48.768375,,48.768375
30,2009-02-04,46.05233333333334,,46.05233333333334
30,2009-02-05,43.830958333333335,,43.830958333333335
30,2009-02-06,45.25808333333333,,45.25808333333333
30,2009-02-07,48.20079166666667,,48.20079166666667
30,2009-02-08,52.732,,52.732
30,2009-02-09,36.83875,,36.83875
30,2009-02-10,48.52108333333334,,48.52108333333334
30,2009-02-11,46.940374999999996,,46.940374999999996
30,2009-02-12,46.03404166666667,,46.03404166666667
30,2009-02-13,46.59916666666667,,46.59916666666667
30,2009-02-14,45.60708333333333,,45.60708333333333
30,2009-02-15,42.945541666666664,,42.945541666666664
30,2009-02-16,42.96120833333333,,42.96120833333333
30,2009-02-17,45.216375,,45.216375
30,2009-02-18,47.341499999999996,,47.341499999999996
30,2009-02-19,45.53670833333334,,45.53670833333334
30,2009-02-20,50.40391666666667,,50.40391666666667
30,2009-02-21,55.06279166666667,,55.06279166666667
30,2009-02-22,54.87525,,54.87525
30,2009-02-23,52.708625000000005,,52.708625000000005
30,2009-02-24,49.596624999999996,,49.596624999999996
30,2009-02-25,20.875125,,20.875125
30,2009-02-26,0.0,,0.0
30,2009-02-27,0.0,,0.0
30,2009-02-28,0.0,,0.0
30,2009-03-01,0.0,,0.0
30,2009-03-02,33.46366666666667,,33.46366666666667
30,2009-03-03,44.38045833333334,,44.38045833333334
30,2009-03-04,50.93254166666667,,50.93254166666667
30,2009-03-05,51.87520833333334,,51.87520833333334
30,2009-03-06,53.057500000000005,,53.057500000000005
30,2009-03-07,56.135625000000005,,56.135625000000005
30,2009-03-08,58.487249999999996,,58.487249999999996
30,2009-03-09,57.497625,,57.497625
30,2009-03-10,55.43254166666667,,55.43254166666667
30,2009-03-11,55.75029166666667,,55.75029166666667
30,2009-03-12,52.396125000000005,,52.396125000000005
30,2009-03-13,52.461166666666664,,52.461166666666664
30,2009-03-14,53.518458333333335,,53.518458333333335
30,2009-03-15,54.24770833333333,,54.24770833333333
30,2009-03-16,55.153875,,55.153875
30,2009-03-17,53.443000000000005,,53.443000000000005
30,2009-03-18,55.72933333333333,,55.72933333333333
30,2009-03-19,52.401250000000005,,52.401250000000005
30,2009-03-20,0.0,,0.0
30,2009-03-21,59.26066666666667,,59.26066666666667
30,2009-03-22,61.30754166666667,,61.30754166666667
30,2009-03-23,46.53404166666667,,46.53404166666667
30,2009-03-24,50.940374999999996,,50.940374999999996
30,2009-03-25,10.263166666666667,,10.263166666666667
30,2009-03-26,0.002625,,0.002625
30,2009-03-27,0.0,,0.0
30,2009-03-28,0.0,,0.0
30,2009-03-29,0.0,,0.0
30,2009-03-30,33.79708333333333,,33.79708333333333
30,2009-03-31,59.273666666666664,,59.273666666666664
30,2009-04-01,58.77883333333333,,58.77883333333333
30,2009-04-02,53.229375000000005,,53.229375000000005
30,2009-04-03,56.646125000000005,,56.646125000000005
30,2009-04-04,55.98204166666667,,55.98204166666667
30,2009-04-05,57.924749999999996,,57.924749999999996
30,2009-04-06,57.716499999999996,,57.716499999999996
30,2009-04-07,52.4195,,52.4195
30,2009-04-08,50.601875,,50.601875
30,2009-04-09,53.393499999999996,,53.393499999999996
30,2009-04-10,55.75541666666667,,55.75541666666667
30,2009-04-11,56.36479166666667,,56.36479166666667
30,2009-04-12,49.35695833333333,,49.35695833333333
30,2009-04-13,16.346541666666667,,16.346541666666667
30,2009-04-14,0.0,,0.0